SKY MUSTER 2 (NBN1B)

Last updated on Sun Apr 12 2026 00:02:54 GMT+0000 (Coordinated Universal Time)

1 41794U 16060B 26100.97896149 -.00000243 00000+0 00000+0 0 9998 2 41794 0.0144 241.5449 0001470 147.2713 307.6156 1.00271460 34840
UTC large
Height (km)
Speed (km/s)
/
Latitude / Longitude
Inclination (degrees)
Orbital Period (minutes)
Azimuth
Elevation
Range (km)
Doppler Factor

Next 0 passes for location: London (51.5072 / 0.1276)

Sorry there are no passes over London.
SKY MUSTER 2 (NBN1B)